Wind_Speed
32 34 35 37 39 40 41 42 41 41 41 41 42 40 40 40 38 38 39 39 39 38 36 35 34 32 31 29 28 27 26 26 25 25 24 25 24 24
30 32 34 36 38 39 41 42 42 42 42 41 42 43 41 40 40 41 40 39 39 39 38 37 36 34 33 32 31 30 29 28 27 26 26 26 26 26
28 30 32 34 36 37 39 41 42 43 42 41 42 42 43 41 41 42 43 42 40 40 39 39 38 37 35 34 33 32 31 30 29 28 28 28 27 27
25 27 29 32 34 36 38 40 41 42 43 42 43 43 43 43 42 43 43 43 42 42 41 39 39 38 37 36 35 34 33 32 31 29 28 28 28 28
22 24 26 29 31 34 36 38 39 41 42 43 43 44 43 44 43 43 43 42 42 42 42 41 40 38 38 37 37 36 35 33 32 30 30 29 28 28
19 21 23 26 29 31 33 35 37 39 41 42 43 44 44 44 44 44 44 44 43 42 42 42 41 40 39 38 37 37 35 34 33 32 32 31 30 29
17 19 21 24 26 29 31 33 35 37 39 40 41 42 43 45 45 45 46 46 46 43 42 42 42 41 41 40 38 37 36 35 35 34 33 31 30 29
15 16 18 21 24 26 28 31 33 35 36 37 39 40 41 43 44 45 45 46 45 43 42 42 42 42 41 40 39 38 36 35 34 33 32 31 30 29
12 14 16 18 21 23 26 29 31 33 34 35 37 38 39 41 42 43 44 44 43 43 43 43 43 43 42 41 39 38 37 36 35 34 33 32 31 30
12 13 14 15 18 20 23 25 27 29 31 33 35 36 37 38 39 40 40 41 42 42 42 42 41 41 40 41 40 39 38 37 35 33 33 32 31 30
14 13 12 13 14 16 19 22 25 27 30 31 33 34 35 36 37 39 38 38 38 39 40 40 40 40 40 39 38 37 37 36 35 34 32 32 30 28
15 13 12 11 12 13 15 18 20 23 26 28 30 32 33 33 34 36 36 36 37 38 39 39 39 39 39 38 37 36 36 36 35 34 33 32 30 28
16 14 13 11 11 11 12 14 17 19 22 24 27 29 31 32 33 33 33 33 34 35 36 36 36 36 37 36 36 36 36 36 34 33 32 30 28 27
18 16 14 12 11 11 11 11 13 15 18 20 23 26 28 29 30 32 33 33 33 33 34 35 34 35 35 35 34 35 35 34 33 32 30 28 26 25
18 16 14 12 11 11 10 10 10 11 14 16 18 21 24 25 27 29 31 33 34 34 34 35 34 33 33 33 34 34 34 33 32 31 29 27 26 25
19 17 15 13 12 11 10 9 8 9 11 13 16 18 20 22 23 26 27 29 31 32 33 34 33 32 31 31 32 32 32 31 30 29 28 27 26 25
18 17 15 14 12 11 10 9 7 7 9 11 13 16 18 20 22 23 26 28 30 31 32 32 32 32 31 31 31 30 30 29 28 27 26 25 25 24
19 18 16 14 13 11 10 9 8 8 8 9 11 13 15 18 20 22 23 25 26 28 29 29 29 30 30 30 29 28 28 28 27 26 25 25 25 24
19 18 16 15 14 12 11 10 9 9 9 10 11 12 13 16 18 20 21 22 23 25 26 28 29 29 28 28 28 28 27 27 25 25 25 25 24 24
20 19 18 16 15 13 12 11 10 10 10 10 11 11 13 15 16 18 20 20 21 23 24 25 26 27 27 27 27 27 27 26 25 25 24 24 23 23
22 21 20 18 17 15 14 13 12 12 11 11 12 11 12 13 15 16 18 19 20 22 22 23 24 25 26 26 26 26 25 25 25 24 24 24 23 23
25 23 22 21 19 18 17 15 14 14 13 13 14 14 14 14 14 15 17 18 19 20 21 22 23 23 24 24 24 24 24 25 25 24 24 23 23 23
29 27 26 24 23 22 20 19 18 17 16 15 15 15 16 16 17 16 17 18 19 19 20 21 22 23 23 23 23 23 24 24 24 24 24 24 24 24
Wind_Direction
250 248 246 244 242 241 239 238 238 237 237 236 236 236 234 234 234 235 237 238 238 240 241 243 245 247 250 254 256 260 262 265 270 273 277 281 283 286
252 250 247 244 243 242 240 240 238 237 236 236 237 236 236 236 236 236 237 238 239 240 242 243 244 246 250 253 255 259 261 264 268 272 275 279 280 283
255 252 248 245 243 241 241 241 240 239 238 237 236 235 237 237 236 237 237 239 241 241 243 244 245 246 249 252 254 258 260 263 267 270 273 276 278 280
257 252 248 245 243 242 241 240 239 239 239 238 237 236 236 237 238 239 239 239 240 241 242 244 245 246 248 250 254 256 259 262 265 267 271 274 276 278
260 253 249 247 244 243 241 240 240 240 240 239 238 238 238 238 239 239 239 239 240 241 242 243 244 247 248 250 254 256 258 260 262 265 269 272 276 277
266 258 252 248 246 244 242 240 240 239 240 240 239 239 239 238 238 239 240 241 241 241 241 241 243 246 248 250 252 255 257 258 261 263 267 270 274 275
273 263 256 252 248 245 243 241 240 239 240 240 240 239 239 238 239 240 241 242 243 243 243 242 244 246 248 249 251 253 255 258 260 262 266 268 270 272
283 272 264 257 251 248 246 244 242 241 240 241 240 240 239 240 240 241 241 242 242 243 244 244 245 245 247 247 248 251 254 256 258 261 263 265 268 269
300 286 276 265 256 251 248 246 244 242 241 241 240 239 240 240 240 242 242 242 243 242 242 243 245 245 246 246 246 248 250 252 256 259 260 263 265 267
321 305 291 278 263 256 251 248 246 244 242 241 240 239 239 239 239 240 241 241 241 240 240 241 242 243 244 243 244 247 248 251 254 256 258 260 263 264
332 320 305 292 274 262 254 249 247 244 242 240 239 237 237 237 237 237 237 239 241 241 240 240 241 242 241 242 244 245 245 248 250 253 256 257 260 260
341 332 319 304 290 275 264 255 250 247 244 240 237 236 236 236 236 236 236 238 240 240 238 238 238 240 241 242 243 243 244 246 247 251 254 256 255 255
347 339 330 318 302 291 280 262 252 248 245 240 237 235 236 236 236 235 234 235 236 235 235 236 237 238 240 241 243 243 243 245 246 249 250 249 249 252
350 345 339 331 322 308 295 277 259 250 245 241 237 237 237 235 234 234 233 234 237 235 234 235 237 239 239 240 243 243 242 242 244 245 246 245 246 249
351 348 343 337 332 321 308 294 271 253 244 238 236 235 235 235 235 233 233 235 236 234 234 235 236 238 238 240 241 240 240 241 244 244 243 243 244 246
349 348 346 340 333 328 321 307 285 264 250 243 237 235 235 236 236 233 233 233 233 232 233 233 233 233 235 237 238 239 242 242 242 241 241 241 241 243
347 346 344 341 336 330 323 313 297 275 260 251 243 237 235 235 236 235 235 233 231 231 232 233 234 233 234 234 236 238 238 238 238 237 236 237 238 240
341 342 342 340 337 332 323 312 301 289 274 260 252 246 239 233 233 236 234 232 232 230 230 230 231 230 231 233 234 235 234 234 235 234 234 237 238 237
332 333 334 334 331 327 321 314 305 296 283 268 259 249 239 237 236 235 236 234 233 231 227 226 226 226 229 229 230 229 229 230 232 232 234 235 235 236
320 321 321 321 322 318 314 309 304 298 285 272 264 255 249 245 239 236 234 233 231 229 228 227 225 226 226 226 226 227 227 229 230 230 230 231 233 235
309 309 310 309 309 307 304 299 294 291 286 275 265 259 252 247 244 240 236 232 230 229 229 228 226 226 226 226 226 227 227 228 229 228 229 231 233 234
299 299 299 298 298 296 294 291 287 282 278 273 267 261 256 249 244 240 235 234 233 231 230 228 227 225 224 224 225 227 228 228 229 230 231 232 233 234
291 291 290 289 288 286 284 281 279 277 273 270 266 261 256 250 247 244 239 236 235 232 231 228 227 227 226 226 228 229 229 230 231 232 233 233 234 235
Height
5763 5766 5770 5774 5778 5783 5787 5792 5798 5803 5808 5813 5818 5822 5826 5831 5836 5840 5844 5848 5852 5855 5859 5862 5865 5867 5870 5871 5873 5874 5876 5877 5877 5878 5878 5877 5877 5876
5755 5757 5760 5764 5768 5772 5777 5782 5787 5792 5798 5803 5808 5813 5817 5822 5827 5830 5835 5839 5843 5847 5851 5854 5857 5860 5862 5864 5866 5868 5869 5870 5871 5872 5872 5872 5871 5871
5746 5748 5751 5754 5758 5762 5766 5771 5776 5782 5788 5793 5797 5802 5807 5812 5817 5821 5826 5830 5834 5838 5842 5846 5849 5852 5854 5857 5859 5861 5862 5864 5865 5865 5865 5865 5865 5865
5738 5739 5742 5745 5748 5752 5757 5761 5766 5771 5777 5782 5787 5792 5797 5802 5807 5811 5816 5820 5824 5828 5833 5836 5840 5843 5846 5849 5851 5853 5855 5856 5857 5858 5859 5859 5859 5859
5730 5732 5734 5737 5740 5743 5747 5751 5756 5761 5766 5771 5776 5781 5786 5792 5797 5802 5806 5810 5815 5819 5823 5827 5831 5834 5837 5840 5843 5845 5847 5849 5850 5851 5852 5852 5852 5852
5724 5725 5727 5729 5731 5734 5738 5742 5746 5751 5755 5760 5766 5771 5776 5781 5786 5792 5796 5801 5805 5809 5813 5817 5821 5825 5828 5831 5835 5837 5839 5841 5842 5843 5844 5845 5845 5845
5718 5719 5720 5722 5724 5726 5729 5733 5737 5741 5745 5750 5755 5760 5766 5770 5776 5782 5786 5790 5795 5799 5804 5808 5812 5816 5819 5822 5826 5828 5830 5832 5834 5835 5836 5837 5838 5838
5713 5713 5714 5715 5716 5718 5721 5725 5728 5732 5736 5741 5745 5750 5755 5760 5765 5770 5775 5780 5785 5791 5794 5798 5802 5806 5810 5813 5816 5819 5822 5824 5825 5827 5828 5829 5830 5831
5709 5709 5709 5709 5710 5711 5714 5716 5719 5723 5727 5732 5736 5741 5745 5751 5755 5760 5764 5769 5774 5779 5783 5788 5792 5796 5800 5804 5807 5810 5812 5815 5817 5819 5820 5821 5822 5823
5707 5705 5704 5703 5704 5705 5707 5709 5712 5715 5719 5723 5727 5731 5735 5739 5744 5750 5754 5758 5763 5768 5773 5777 5782 5786 5790 5794 5797 5800 5803 5806 5809 5810 5812 5813 5814 5815
5705 5702 5701 5700 5699 5700 5701 5703 5705 5707 5710 5714 5718 5722 5726 5730 5735 5740 5744 5748 5753 5758 5763 5768 5772 5776 5780 5784 5788 5791 5794 5797 5800 5802 5804 5805 5807 5808
5703 5700 5698 5697 5696 5695 5696 5697 5699 5700 5703 5706 5710 5713 5717 5721 5726 5731 5735 5740 5744 5748 5753 5758 5762 5767 5771 5775 5778 5782 5785 5788 5790 5793 5795 5797 5799 5800
5703 5699 5697 5695 5693 5693 5692 5692 5693 5695 5697 5699 5703 5706 5710 5714 5718 5722 5727 5731 5735 5740 5745 5749 5753 5758 5762 5766 5769 5773 5776 5779 5781 5784 5786 5789 5791 5793
5703 5699 5696 5694 5692 5691 5690 5689 5689 5690 5692 5694 5697 5700 5704 5707 5711 5715 5719 5723 5727 5732 5736 5741 5745 5749 5753 5757 5760 5764 5767 5770 5773 5776 5778 5781 5783 5785
5703 5699 5696 5693 5691 5690 5688 5687 5687 5687 5688 5690 5692 5695 5698 5701 5704 5708 5712 5716 5719 5723 5728 5732 5736 5740 5744 5748 5752 5755 5759 5762 5764 5768 5770 5773 5776 5778
5703 5699 5696 5693 5691 5689 5687 5686 5685 5685 5686 5687 5689 5691 5693 5696 5699 5701 5705 5709 5712 5716 5720 5724 5728 5732 5736 5740 5744 5747 5750 5754 5757 5760 5763 5766 5768 5771
5702 5699 5696 5693 5691 5689 5687 5685 5684 5684 5684 5684 5685 5687 5689 5691 5693 5696 5699 5702 5706 5709 5713 5717 5721 5725 5729 5732 5736 5739 5743 5746 5749 5752 5755 5758 5761 5763
5701 5698 5695 5693 5690 5688 5686 5685 5684 5683 5682 5682 5683 5683 5685 5686 5689 5691 5693 5696 5699 5703 5706 5710 5714 5717 5721 5725 5729 5732 5736 5739 5742 5745 5749 5752 5754 5756
5700 5697 5694 5692 5689 5687 5686 5684 5683 5681 5681 5680 5681 5681 5682 5683 5685 5687 5689 5691 5694 5697 5700 5703 5707 5711 5715 5718 5722 5726 5729 5732 5735 5739 5742 5744 5747 5750
5697 5694 5692 5690 5688 5686 5684 5682 5681 5680 5679 5678 5678 5678 5679 5680 5681 5683 5685 5687 5689 5692 5695 5698 5701 5705 5708 5712 5716 5719 5723 5726 5729 5732 5735 5738 5740 5743
5693 5691 5688 5686 5685 5683 5681 5680 5679 5678 5677 5676 5676 5676 5676 5677 5678 5679 5681 5683 5685 5687 5690 5693 5696 5699 5702 5706 5710 5713 5716 5719 5722 5725 5728 5731 5734 5737
5687 5685 5684 5682 5680 5679 5677 5676 5675 5675 5674 5673 5673 5673 5673 5674 5675 5676 5677 5679 5681 5683 5685 5688 5691 5694 5697 5700 5704 5707 5710 5713 5716 5719 5722 5725 5728 5730
5680 5678 5677 5676 5674 5673 5672 5671 5671 5670 5670 5669 5669 5669 5670 5670 5671 5672 5673 5675 5677 5679 5681 5683 5686 5689 5692 5695 5698 5701 5704 5707 5710 5713 5716 5718 5721 5723